Showing default

OPS 9327 (IDSCS 14), 2654

Orbit data source: Space-Track

OPS 9327 (IDSCS 14), 2654 is a payload satellite owned by USAF SSD (US) in GEO that was launched on Wed, 18 Jan 1967 UTC via a TITAN IIIC launch vehicle from the Air Force Eastern Test Range (AFETR). Payload-class satellites include a variety of spacecraft equipped with specific instruments for various scientific and technological missions. These include communications satellites like Starlink; space stations such as the ISS; scientific satellites like the Hubble; Earth observation satellites from companies like Planet Labs, Umbra, and HawkEye 360; GPS; miniature CubeSats for education and research; and military/defense satellites.

Loading next visibility...
Identifier
2654, 1967-003G
Orbit
GEO
Country
Flag of USUS
Related business
Manufacturer
Philco-Ford WDL
Mission
Non-operational Defense Communications
Bus & Motor
IDCSP, Unknown motor
Mass
45 kg wet, 45 kg dry
Launch date (UTC)
1967-01-18 (59 years ago)
Launch vehicle
TITAN IIIC
Launch site
Air Force Eastern Test Range (AFETR)
Object type
Payload
Rocket body
Debris
Shape & HBR
Ico Poly, 0.5 m
Radar Cross Section
0.926 m², Medium (>0.1 m² and < 1m²)

Expand to show TLE details & history
Last TLE update: 6 days ago

TLE from 6 days ago
0 OPS 9327 (IDSCS 14)
1 02654U 67003G   25253.51366361 -.00000056  00000-0  00000-0 0  9993
2 02654   7.6142  49.6513 0057233  43.9165 234.1362  1.07510620136468
Epoch: 2025-09-10T12:19Z
TLE epoch observation values (Epoch: 2025-09-10T12:19:40.535Z)
Latitude
-7.54586°
Longitude
152.51592°
Altitude
34,008.562 km
Speed
3.136 km/s
True Right ascension
21h 48m 53s
True Declination
-7° 32' 17"
Sunlit
Object was in daylight at epoch
Visualization orbit readout
Latitude
Unknown
Longitude
Unknown
Altitude
Unknown
Speed
Unknown
Apparent Right ascension
Unknown
Apparent Declination
Unknown
Sunlit
N/A
Visualization observer readout
Local Sidereal Time
08:13:16
Azimuth
Unknown
Elevation
Unknown
Doppler factor
Unknown
Orbital elements
Apogee altitude
34,103.482 km
Perigee altitude
33,642.742 km
Semi-major axis
40,251.249 km
Eccentricity
0.00572
Inclination
7.6142°
RAAN
49.6513°
Arg. of periapsis
43.9165°
True anomaly
233.60692°
Mean anomaly
234.1362°
Eccentric anomaly
233.87134°
Mean motion
0.26877 °/min
Orbital period
1,339.46 mins
BSTAR
0
Loading maneuver chart data...
Computing Atmospheric mass density...
Loading historical data...
Loading historical data...
Loading historical data...
Loading historical data...
Loading historical data...
Loading historical data...
Loading historical data...

Documentation

Showing up to 5 results
|